Weather Roundup
Issued by NWS Corpus Christi, TX

Home | Current Version | Previous Version | Text Only | Print | Product List | Glossary On
Versions: 1 2 3 4 5 6 7 8 9 10 11 12 13 14 15 16 17 18 19 20 21 22 23 24 25 26 27 28 29 30 31 32 33 34 35 36 37 38 39 40 41 42 43 44 45 46 47 48 49 50
000
ASUS44 KCRP 190410
HRRCRP

SOUTH TEXAS REGIONAL WEATHER ROUNDUP
NATIONAL WEATHER SERVICE CORPUS CHRISTI TX
1000 PM CST SUN FEB 18 2018


TXZ229>244-190500-
...CORPUS CHRISTI AREA OBSERVATIONS...

CITY           SKY/WX    TMP DP  RH WIND       PRES   REMARKS
CORPUS CHRISTI MOCLDY    71  69  93 S23       29.97S
NAS CORPUS CHR FAIR      71  69  93 SE16      29.97S
ROCKPORT       MOCLDY    68  67  96 SE13      29.99R
KINGSVILLE ARP MOCLDY    71  71  99 SE10      29.96S
KINGSVILLE NAS CLOUDY    71  68  90 SE20      29.96S
ALICE          CLEAR     69  66  90 SE15G21   29.95S
$$

...VICTORIA AREA OBSERVATIONS...

CITY           SKY/WX    TMP DP  RH WIND       PRES   REMARKS
PORT LAVACA    FAIR      68  66  93 SE16G22   29.99F
VICTORIA       CLOUDY    70  67  90 S22       29.99S
BEEVILLE       CLOUDY    69  67  94 SE15      29.96S
PLEASANTON     PTCLDY    69  63  80 S21G31    29.93S
SAN ANTONIO    MOCLDY    68  59  73 SE16      29.93S
$$

...LAREDO AREA OBSERVATIONS...

CITY           SKY/WX    TMP DP  RH WIND       PRES   REMARKS
LAREDO         PTCLDY    74  62  66 SE21G26   29.89R
COTULLA        PTCLDY    75  61  61 S16G26    29.88S
DEL RIO        CLOUDY    65  63  93 E5        29.84S
MCALLEN        FAIR      75  70  84 SE17G23   29.96S
HEBBRONVILLE   CLEAR     70  63  78 S18G28    29.93F
$$

...OTHER TEXAS OBSERVATIONS...

CITY           SKY/WX    TMP DP  RH WIND       PRES   REMARKS
BROWNSVILLE    CLOUDY    74  72  93 SE13      29.99S
HOUSTON        MOCLDY    69  67  93 SE15      30.03S
COL. STATION   CLOUDY    68  64  87 SE18G29   29.96S
AUSTIN         MOCLDY    68  65  90 S20G26    29.93R
WACO           CLOUDY    68  60  75 S18       29.90S
FORT WORTH     FOG       63  62  97 S7        29.89S VSB 1/2
WICHITA FALLS  PTCLDY    63  58  83 S17       29.78S
LUBBOCK        MOCLDY    63  56  78 S25G33    29.78R
EL PASO        MOCLDY    64  39  39 W25G37    29.86S
$$

...MARINE OBSERVATIONS...

STATION/POSITION TIME  SKY/WX   TEMP    WIND        PRES    VSBY  WAVE   SWELL
                                AIR SEA DIR/SP/G                  HT/PER HT/PER
                 (UTC)          (F)     (DEG/KT/KT) (MB)    (MI)  (FT/S) (FT/S)
PORT ARANSAS     NOT AVBL
BUOY 90 E PORT A 0350            73 71  120/ 19/ 23 1016.7F         5/ 5
BUOY 200 E PT IS 0350            74 74  130/ 16/ 19 1018.4R         4/ 6
BUOY 15 E GALVES 0250            64 62  140/ 10/ 12 1017.8          2/ 6   2/ 6
$$




USA.gov is the U.S. government's official web portal to all federal, state and local government web resources and services.